Weather History for Monument Pass, CO

Change the Weather History Date:

Tuesday, October 23, 2012

  Actual Average (KAPA) Record (KAPA)
Temperature  
Mean Temperature 56 °F -  
Max Temperature 71 °F 59 °F 82 °F (2003)
Min Temperature 41 °F 31 °F 26 °F (2002)
Degree Days  
Heating Degree Days 8    
Growing Degree Days 6 (Base 50)    
Moisture  
Dew Point 21 °F    
Average Humidity 27    
Maximum Humidity 65    
Minimum Humidity 13    
Precipitation  
Precipitation 0.00 in - - ()
Sea Level Pressure  
Sea Level Pressure 29.85 in    
Wind  
Wind Speed 15 mph (WSW)    
Max Wind Speed 36 mph    
Max Gust Speed 51 mph    
Visibility 10 miles    
Events      
Averages and records for this station are not official NWS values.
T = Trace of Precipitation, MM = Missing Value Source: NWS Daily Summary

Daily Weather History Graph

Daily Weather History Graph

Search for Another Location

Airport:

Trip Planner

Search our weather history database for the weather conditions in past years. The results will help you decide how hot, cold, wet, or windy it might be!

Date:

Astronomy

Oct. 23, 2012 Rise Set
Actual Time 7:17 AM MDT 6:07 PM MDT
Civil Twilight 6:49 AM MDT 6:35 PM MDT
Nautical Twilight 6:18 AM MDT 7:06 PM MDT
Astronomical Twilight 5:47 AM MDT 7:37 PM MDT
Moon 2:50 PM MDT (10/23) 1:14 AM MDT (10/23)
Length of Visible Light 11h 45m
Length of Day
10h 50m
Waxing Gibbous, 67% of the Moon is Illuminated
Oct 23
Waxing Gibbous
Oct 29
Full
Nov 6
Last Quarter
Nov 13
New
Nov 20
First Quarter

Hourly Weather History & Observations

Time (MDT) Temp. Windchill Dew Point Humidity Pressure Visibility Wind Dir Wind Speed Gust Speed Precip Events Conditions
12:11 AM 50.0 °F - 21.2 °F 32% - 10.0 mi WSW 10.4 mph - N/A   Clear
12:31 AM 51.8 °F - 21.2 °F 30% 29.85 in 10.0 mi West 11.5 mph 17.3 mph N/A   Clear
12:51 AM 51.8 °F - 21.2 °F 30% 29.85 in 10.0 mi WSW 11.5 mph - N/A   Clear
1:11 AM 46.4 °F 40.7 °F 21.2 °F 37% 29.85 in 10.0 mi WSW 12.7 mph - N/A   Clear
1:31 AM 50.0 °F - 21.2 °F 32% 29.85 in 10.0 mi WSW 9.2 mph - N/A   Clear
2:31 AM 48.2 °F - 21.2 °F 34% 29.85 in 10.0 mi SW 16.1 mph - N/A   Clear
2:51 AM 50.0 °F - 21.2 °F 32% 29.86 in 10.0 mi SSW 8.1 mph - N/A   Clear
3:11 AM 50.0 °F - 19.4 °F 30% 29.86 in 10.0 mi SW 10.4 mph - N/A   Clear
3:31 AM 48.2 °F - 19.4 °F 32% 29.86 in 10.0 mi SW 11.5 mph - N/A   Clear
3:50 AM 50.0 °F - 21.2 °F 32% 29.86 in 10.0 mi SW 11.5 mph - N/A   Clear
4:11 AM 46.4 °F 42.9 °F 19.4 °F 34% 29.87 in 10.0 mi SSW 6.9 mph - N/A   Clear
4:31 AM 50.0 °F - 21.2 °F 32% 29.87 in 10.0 mi SW 4.6 mph - N/A   Clear
4:51 AM 46.4 °F 45.2 °F 21.2 °F 37% 29.86 in 10.0 mi SSW 3.5 mph - N/A   Clear
5:31 AM 44.6 °F 43.1 °F 21.2 °F 39% 29.86 in 10.0 mi SSE 3.5 mph - N/A   Clear
5:51 AM 42.8 °F 38.6 °F 21.2 °F 42% 29.86 in 10.0 mi SE 6.9 mph - N/A   Clear
6:11 AM 42.8 °F 36.6 °F 21.2 °F 42% 29.85 in 10.0 mi South 11.5 mph - N/A   Clear
6:30 AM 44.6 °F 40.2 °F 19.4 °F 37% 29.85 in 10.0 mi SSE 8.1 mph - N/A   Clear
6:51 AM 50.0 °F - 23.0 °F 35% 29.84 in 10.0 mi SSW 13.8 mph 17.3 mph N/A   Clear
7:11 AM 51.8 °F - 23.0 °F 33% 29.84 in 10.0 mi SW 17.3 mph 21.9 mph N/A   Clear
7:31 AM 51.8 °F - 23.0 °F 33% 29.84 in 10.0 mi SW 16.1 mph - N/A   Clear
7:51 AM 50.0 °F - 23.0 °F 35% 29.85 in 7.0 mi SSW 9.2 mph - N/A   Clear
8:11 AM 51.8 °F - 24.8 °F 35% 29.85 in 10.0 mi SW 15.0 mph - N/A   Clear
8:31 AM 53.6 °F - 24.8 °F 33% 29.85 in 10.0 mi SW 12.7 mph 17.3 mph N/A   Clear
8:51 AM 55.4 °F - 26.6 °F 33% 29.84 in 10.0 mi WSW 26.5 mph 33.4 mph N/A   Clear
9:11 AM 59.0 °F - 26.6 °F 29% 29.84 in 10.0 mi WSW 27.6 mph 35.7 mph N/A   Clear
9:51 AM 60.8 °F - 26.6 °F 27% 29.83 in 10.0 mi WSW 33.4 mph 46.0 mph N/A   Clear
10:11 AM 62.6 °F - 26.6 °F 26% 29.83 in 10.0 mi WSW 33.4 mph 39.1 mph N/A   Clear
10:31 AM 62.6 °F - 26.6 °F 26% 29.84 in 10.0 mi WSW 35.7 mph 50.6 mph N/A   Clear
10:51 AM 62.6 °F - 24.8 °F 24% 29.84 in 10.0 mi West 35.7 mph 44.9 mph N/A   Clear
11:10 AM 64.4 °F - 23.0 °F 21% 29.84 in 10.0 mi WSW 31.1 mph 40.3 mph N/A   Clear
11:30 AM 66.2 °F - 23.0 °F 19% 29.86 in 10.0 mi WSW 27.6 mph 36.8 mph N/A   Clear
11:50 AM 68.0 °F - 21.2 °F 17% 29.87 in 10.0 mi West 25.3 mph 40.3 mph N/A   Clear
12:10 PM 66.2 °F - 19.4 °F 17% 29.86 in 10.0 mi WSW 29.9 mph 39.1 mph N/A   Clear
12:31 PM 68.0 °F - 19.4 °F 16% 29.84 in 10.0 mi West 27.6 mph 38.0 mph N/A   Clear
12:51 PM 68.0 °F - 19.4 °F 16% 29.82 in 10.0 mi West 29.9 mph 39.1 mph N/A   Clear
1:11 PM 69.8 °F - 19.4 °F 15% 29.82 in 10.0 mi WSW 29.9 mph 39.1 mph N/A   Clear
1:31 PM 69.8 °F - 17.6 °F 14% 29.81 in 10.0 mi West 29.9 mph 40.3 mph N/A   Clear
1:50 PM 69.8 °F - 17.6 °F 14% 29.81 in 10.0 mi West 29.9 mph 44.9 mph N/A   Clear
2:11 PM 71.6 °F - 17.6 °F 13% 29.81 in 10.0 mi West 31.1 mph 43.7 mph N/A   Clear
2:31 PM 69.8 °F - 17.6 °F 14% 29.82 in 10.0 mi West 27.6 mph 34.5 mph N/A   Clear
2:51 PM 68.0 °F - 17.6 °F 15% 29.82 in 10.0 mi West 19.6 mph 23.0 mph N/A   Clear
3:11 PM 68.0 °F - 19.4 °F 16% 29.81 in 10.0 mi West 17.3 mph 23.0 mph N/A   Clear
3:31 PM 69.8 °F - 19.4 °F 15% 29.82 in 10.0 mi SW 16.1 mph 21.9 mph N/A   Clear
3:51 PM 68.0 °F - 19.4 °F 16% 29.83 in 10.0 mi SW 17.3 mph 21.9 mph N/A   Clear
4:11 PM 69.8 °F - 17.6 °F 14% 29.83 in 10.0 mi SW 16.1 mph - N/A   Clear
4:31 PM 69.8 °F - 15.8 °F 13% 29.83 in 10.0 mi SW 13.8 mph 23.0 mph N/A   Clear
4:51 PM 69.8 °F - 17.6 °F 14% 29.83 in 10.0 mi West 16.1 mph - N/A   Clear
5:11 PM 69.8 °F - 17.6 °F 14% 29.83 in 10.0 mi WSW 15.0 mph 23.0 mph N/A   Clear
5:31 PM 66.2 °F - 15.8 °F 14% 29.83 in 10.0 mi WSW 17.3 mph 21.9 mph N/A   Clear
5:51 PM 64.4 °F - 17.6 °F 16% 29.84 in 10.0 mi SW 10.4 mph - N/A   Clear
6:11 PM 60.8 °F - 19.4 °F 20% 29.84 in 10.0 mi SW 10.4 mph - N/A   Clear
6:31 PM 60.8 °F - 17.6 °F 19% 29.85 in 10.0 mi SW 15.0 mph 20.7 mph N/A   Clear
6:51 PM 60.8 °F - 19.4 °F 20% 29.86 in 10.0 mi SW 10.4 mph - N/A   Clear
7:11 PM 57.2 °F - 19.4 °F 23% 29.86 in 10.0 mi SW 11.5 mph - N/A   Clear
7:31 PM 57.2 °F - 19.4 °F 23% 29.87 in 10.0 mi SW 10.4 mph - N/A   Clear
7:51 PM 55.4 °F - 19.4 °F 25% 29.88 in 10.0 mi WSW 11.5 mph 18.4 mph N/A   Clear
8:10 PM 55.4 °F - 19.4 °F 25% 29.88 in 10.0 mi WSW 15.0 mph - N/A   Clear
8:31 PM 57.2 °F - 19.4 °F 23% 29.89 in 10.0 mi WSW 16.1 mph 21.9 mph N/A   Clear
8:51 PM 57.2 °F - 19.4 °F 23% 29.89 in 10.0 mi WSW 13.8 mph - N/A   Clear
9:11 PM 55.4 °F - 19.4 °F 25% 29.89 in 10.0 mi WSW 13.8 mph - N/A   Clear
9:31 PM 55.4 °F - 19.4 °F 25% 29.89 in 10.0 mi WSW 16.1 mph - N/A   Clear
9:51 PM 55.4 °F - 21.2 °F 26% 29.89 in 10.0 mi WSW 18.4 mph - N/A   Clear
10:11 PM 55.4 °F - 21.2 °F 26% 29.89 in 10.0 mi WSW 18.4 mph - N/A   Clear
10:31 PM 55.4 °F - 19.4 °F 25% 29.91 in 10.0 mi West 20.7 mph 26.5 mph N/A   Clear
10:50 PM 46.4 °F 40.1 °F 28.4 °F 50% 29.94 in 10.0 mi North 15.0 mph - N/A   Clear
11:11 PM 42.8 °F 37.5 °F 30.2 °F 61% 29.95 in 10.0 mi NNW 9.2 mph - N/A   Clear
11:31 PM 41.0 °F 34.3 °F 30.2 °F 65% 29.96 in 10.0 mi NW 11.5 mph - N/A   Clear